WESTFORD NEEDLES, 18962

Orbit data source: Space-Track

WESTFORD NEEDLES, 18962 is space debris in LEO originally from a launch on Thu, 09 May 1963 UTC launched from the Air Force Western Test Range (AFWTR). Debris objects in space refer to the collection of defunct objects orbiting the Earth. Examples of debris include non-operational satellites, rocket bodies, and fragments generated from explosions, collisions, or faulty payload assembly.

Loading next visibility...
Identifier
18962, 1963-014DN
Orbit
LEO
Country
Flag of USUS
Related business
Manufacturer
Unknown
Mission
Spacecraft
Bus & Motor
Unknown
Mass
Unknown
Launch date (UTC)
1963-05-09 (63 years ago)
Launch vehicle
Unknown
Launch site
Air Force Western Test Range (AFWTR)
Object type
Payload
Rocket body
Debris
Shape & HBR
Unknown shape, 0.2 m
Radar Cross Section
Medium (>0.1 m² and <1 m²)

Expand to show TLE details & history
Last TLE update: 3 months ago

TLE from 3 months ago
0 WESTFORD NEEDLES
1 18962U 63014DN  26091.15900960  .00001697  00000-0  26395+0 0  9995
2 18962  86.4879 162.4219 1393659 331.1768  21.8541  8.76609823195780
Epoch: 2026-04-01T03:48Z
TLE epoch observation values (Epoch: 2026-04-01T03:48:58.429Z)
Latitude
0.00006°
Longitude
-84.3474°
Altitude
2,307.446 km
Speed
7.19 km/s
True Right ascension
10h 49m 41s
True Declination
0° 00' 00"
Sunlit
Object was in full shadow at epoch
Visualization orbit readout
Latitude
Unknown
Longitude
Unknown
Altitude
Unknown
Speed
Unknown
Apparent Right ascension
Unknown
Apparent Declination
Unknown
Sunlit
N/A
Visualization observer readout
Local Sidereal Time
01:01:15
Azimuth
Unknown
Elevation
Unknown
Doppler factor
Unknown
Orbital elements
Apogee altitude
4,939.675 km
Perigee altitude
2,170.912 km
Semi-major axis
9,933.43 km
Eccentricity
0.13937
Inclination
86.4879°
RAAN
162.4219°
Arg. of periapsis
331.1768°
True anomaly
28.91643°
Mean anomaly
21.8541°
Eccentric anomaly
25.26177°
Mean motion
2.19227 °/min
Orbital period
164.21 mins
BSTAR
0.26395
Loading maneuver chart data...
Computing Atmospheric mass density...

Documentation

Showing up to 5 results
|